TimeCST,TemperatureF,Dew PointF,Humidity,Sea Level PressureIn,VisibilityMPH,Wind Direction,Wind SpeedMPH,Gust SpeedMPH,PrecipitationIn,Events,Conditions,WindDirDegrees,DateUTC
12:15 AM,24.1,23.2,96,30.14,10.0,East,3.5,-,N/A,,Clear,80,2013-02-25 06:15:00
12:35 AM,23.9,23.0,96,30.14,10.0,Calm,Calm,-,N/A,,Clear,0,2013-02-25 06:35:00
12:55 AM,24.1,23.2,96,30.14,10.0,Calm,Calm,-,N/A,,Clear,0,2013-02-25 06:55:00
1:15 AM,23.5,22.5,96,30.14,10.0,Calm,Calm,-,N/A,,Clear,0,2013-02-25 07:15:00
1:35 AM,22.8,21.9,96,30.13,7.0,Calm,Calm,-,N/A,,Clear,0,2013-02-25 07:35:00
2:15 AM,23.0,22.1,96,30.14,10.0,Calm,Calm,-,N/A,,Clear,0,2013-02-25 08:15:00
2:35 AM,22.8,22.1,97,30.14,7.0,Calm,Calm,-,N/A,,Clear,0,2013-02-25 08:35:00
2:55 AM,22.3,21.7,98,30.14,7.0,Calm,Calm,-,N/A,,Clear,0,2013-02-25 08:55:00
3:15 AM,21.9,21.2,97,30.13,5.0,Calm,Calm,-,N/A,,Clear,0,2013-02-25 09:15:00
3:35 AM,21.6,21.0,98,30.13,7.0,Calm,Calm,-,N/A,,Clear,0,2013-02-25 09:35:00
3:55 AM,21.6,20.8,97,30.13,7.0,Calm,Calm,-,N/A,,Clear,0,2013-02-25 09:55:00
4:15 AM,21.6,20.7,96,30.14,7.0,Calm,Calm,-,N/A,,Clear,0,2013-02-25 10:15:00
4:35 AM,22.1,21.2,96,30.15,7.0,Calm,Calm,-,N/A,,Clear,0,2013-02-25 10:35:00
4:55 AM,21.7,21.0,97,30.15,7.0,Calm,Calm,-,N/A,,Clear,0,2013-02-25 10:55:00
5:15 AM,21.2,20.3,96,30.15,7.0,East,3.5,-,N/A,,Clear,80,2013-02-25 11:15:00
5:35 AM,21.0,20.1,96,30.16,7.0,East,4.6,-,N/A,,Clear,100,2013-02-25 11:35:00
5:55 AM,21.0,19.9,96,30.15,7.0,East,4.6,-,N/A,,Clear,100,2013-02-25 11:55:00
6:15 AM,21.7,20.7,96,30.16,7.0,ESE,3.5,-,N/A,,Clear,110,2013-02-25 12:15:00
6:35 AM,22.1,20.8,95,30.17,5.0,Calm,Calm,-,N/A,,Clear,0,2013-02-25 12:35:00
6:55 AM,22.1,21.0,96,30.18,5.0,Calm,Calm,-,N/A,,Clear,0,2013-02-25 12:55:00
7:15 AM,22.8,21.6,95,30.18,5.0,Calm,Calm,-,N/A,,Clear,0,2013-02-25 13:15:00
7:35 AM,23.4,22.3,96,30.18,5.0,Calm,Calm,-,N/A,,Clear,0,2013-02-25 13:35:00
7:55 AM,26.4,25.0,94,30.17,7.0,East,4.6,-,N/A,,Clear,100,2013-02-25 13:55:00
8:15 AM,28.6,25.9,90,30.16,10.0,ESE,5.8,-,N/A,,Clear,120,2013-02-25 14:15:00
8:35 AM,30.6,26.8,86,30.15,10.0,ESE,6.9,-,N/A,,Clear,120,2013-02-25 14:35:00
8:55 AM,32.2,26.8,80,30.15,10.0,SE,6.9,-,N/A,,Clear,130,2013-02-25 14:55:00
9:15 AM,33.6,27.0,77,30.15,10.0,SE,9.2,-,N/A,,Clear,140,2013-02-25 15:15:00
9:35 AM,34.7,26.8,73,30.15,10.0,ESE,10.4,-,N/A,,Clear,120,2013-02-25 15:35:00
9:55 AM,35.6,26.6,70,30.15,10.0,SE,13.8,17.3,N/A,,Clear,140,2013-02-25 15:55:00
10:15 AM,36.3,26.8,68,30.15,10.0,SE,11.5,-,N/A,,Clear,130,2013-02-25 16:15:00
10:35 AM,37.0,27.1,67,30.14,10.0,SE,11.5,-,N/A,,Clear,130,2013-02-25 16:35:00
11:15 AM,38.1,26.8,64,30.13,10.0,ESE,11.5,-,N/A,,Clear,120,2013-02-25 17:15:00
11:35 AM,38.7,26.8,62,30.12,10.0,ESE,9.2,-,N/A,,Clear,120,2013-02-25 17:35:00
11:55 AM,39.0,26.6,61,30.13,10.0,SE,8.1,-,N/A,,Clear,130,2013-02-25 17:55:00
12:15 PM,39.9,26.2,58,30.13,10.0,East,8.1,-,N/A,,Clear,100,2013-02-25 18:15:00
12:35 PM,40.5,26.4,57,30.13,10.0,East,9.2,-,N/A,,Clear,100,2013-02-25 18:35:00
12:55 PM,40.8,26.2,56,30.11,10.0,ESE,5.8,-,N/A,,Clear,110,2013-02-25 18:55:00
1:15 PM,41.2,26.8,57,30.10,10.0,ESE,9.2,-,N/A,,Clear,120,2013-02-25 19:15:00
1:35 PM,41.5,27.9,58,30.09,10.0,East,8.1,-,N/A,,Clear,100,2013-02-25 19:35:00
1:55 PM,41.7,26.8,55,30.09,10.0,SE,6.9,-,N/A,,Clear,130,2013-02-25 19:55:00
2:15 PM,42.1,26.8,55,30.07,10.0,East,9.2,-,N/A,,Clear,90,2013-02-25 20:15:00
2:35 PM,42.4,27.5,56,30.07,10.0,East,6.9,-,N/A,,Clear,80,2013-02-25 20:35:00
2:55 PM,42.6,27.7,56,30.06,10.0,East,10.4,-,N/A,,Clear,90,2013-02-25 20:55:00
3:15 PM,42.1,27.1,55,30.07,10.0,East,9.2,-,N/A,,Clear,100,2013-02-25 21:15:00
3:35 PM,41.9,27.9,58,30.07,10.0,ESE,8.1,-,N/A,,Clear,110,2013-02-25 21:35:00
3:55 PM,41.7,27.5,57,30.07,10.0,East,9.2,-,N/A,,Clear,90,2013-02-25 21:55:00
4:15 PM,41.4,27.5,58,30.06,10.0,East,8.1,-,N/A,,Clear,100,2013-02-25 22:15:00
4:35 PM,40.6,28.0,61,30.04,10.0,East,8.1,-,N/A,,Clear,80,2013-02-25 22:35:00
4:55 PM,39.6,27.7,62,30.05,10.0,East,9.2,-,N/A,,Clear,80,2013-02-25 22:55:00
5:15 PM,37.8,27.3,66,30.04,10.0,East,6.9,-,N/A,,Clear,80,2013-02-25 23:15:00
5:35 PM,36.9,27.3,68,30.03,10.0,ENE,9.2,-,N/A,,Clear,70,2013-02-25 23:35:00
5:55 PM,36.0,27.5,71,30.03,10.0,ENE,6.9,-,N/A,,Clear,70,2013-02-25 23:55:00
6:15 PM,35.2,27.7,74,30.03,10.0,ENE,5.8,-,N/A,,Clear,60,2013-02-26 00:15:00
6:35 PM,34.7,27.7,76,30.03,10.0,NE,8.1,-,N/A,,Clear,50,2013-02-26 00:35:00
6:55 PM,34.9,27.9,76,30.01,10.0,NE,8.1,-,N/A,,Clear,50,2013-02-26 00:55:00
7:15 PM,34.3,27.9,77,30.01,10.0,ENE,6.9,-,N/A,,Clear,70,2013-02-26 01:15:00
7:35 PM,33.4,27.5,79,30.01,10.0,ENE,5.8,-,N/A,,Clear,70,2013-02-26 01:35:00
7:55 PM,32.2,27.1,82,29.99,10.0,NE,8.1,-,N/A,,Clear,50,2013-02-26 01:55:00
8:15 PM,32.4,27.3,82,29.99,10.0,ENE,6.9,-,N/A,,Clear,70,2013-02-26 02:15:00
8:35 PM,32.0,27.5,83,30.00,10.0,ENE,9.2,-,N/A,,Clear,70,2013-02-26 02:35:00
8:55 PM,32.9,27.5,81,30.01,10.0,East,8.1,-,N/A,,Clear,90,2013-02-26 02:55:00
9:15 PM,33.4,27.3,78,30.02,10.0,ENE,10.4,-,N/A,,Clear,70,2013-02-26 03:15:00
9:35 PM,32.9,27.0,79,30.03,10.0,ENE,6.9,-,N/A,,Clear,70,2013-02-26 03:35:00
9:55 PM,32.9,27.1,79,30.01,10.0,ENE,9.2,-,N/A,,Clear,70,2013-02-26 03:55:00
10:15 PM,32.9,27.1,79,30.00,10.0,ENE,9.2,-,N/A,,Clear,70,2013-02-26 04:15:00
10:35 PM,32.7,27.0,79,29.99,10.0,ENE,10.4,16.1,N/A,,Clear,70,2013-02-26 04:35:00
10:55 PM,32.5,27.1,80,29.98,10.0,ENE,11.5,16.1,N/A,,Clear,60,2013-02-26 04:55:00
11:15 PM,32.4,27.3,82,29.97,10.0,ENE,15.0,-,N/A,,Clear,60,2013-02-26 05:15:00
11:35 PM,32.2,27.3,82,29.96,10.0,ENE,11.5,-,N/A,,Clear,70,2013-02-26 05:35:00